Time,TemperatureF,DewpointF,PressureIn,WindDirection,WindDirectionDegrees,WindSpeedMPH,WindSpeedGustMPH,Humidity,HourlyPrecipIn,Conditions,Clouds,dailyrainin,SoftwareType,DateUTC
2009-06-29 00:00:00,69.8,45.7,28.35,WSW,248,0.0,0.0,42,0.00,CLR,,0.00,WeatherDisplay:10.37,2009-06-29 07:00:00,
2009-06-29 00:05:00,69.8,45.0,28.35,WSW,248,2.3,0.0,41,0.00,CLR,,0.00,WeatherDisplay:10.37,2009-06-29 07:05:00,
2009-06-29 00:10:00,71.4,45.2,28.35,WSW,248,2.2,0.0,39,0.00,CLR,,0.00,WeatherDisplay:10.37,2009-06-29 07:10:00,
2009-06-29 00:15:00,71.2,44.3,28.35,WSW,248,0.0,0.0,38,0.00,CLR,,0.00,WeatherDisplay:10.37,2009-06-29 07:15:00,
2009-06-29 00:20:00,71.4,45.2,28.35,WSW,248,0.0,0.0,39,0.00,CLR,,0.00,WeatherDisplay:10.37,2009-06-29 07:20:00,
2009-06-29 00:25:00,70.9,45.3,28.35,WSW,248,0.0,0.0,40,0.00,CLR,,0.00,WeatherDisplay:10.37,2009-06-29 07:25:00,
2009-06-29 01:00:00,69.4,46.0,28.35,WSW,248,2.2,0.0,43,0.00,CLR,,0.00,WeatherDisplay:10.37,2009-06-29 08:00:00,
2009-06-29 01:05:00,69.6,44.9,28.35,WSW,248,0.0,0.0,41,0.00,CLR,,0.00,WeatherDisplay:10.37,2009-06-29 08:05:00,
2009-06-29 01:10:00,70.7,43.8,28.35,WSW,248,0.0,0.0,38,0.00,CLR,,0.00,WeatherDisplay:10.37,2009-06-29 08:10:00,
2009-06-29 01:15:00,71.4,43.1,28.35,WSW,248,0.0,0.0,36,0.00,CLR,,0.00,WeatherDisplay:10.37,2009-06-29 08:15:00,
2009-06-29 01:20:00,71.4,43.8,28.35,WSW,248,0.0,0.0,37,0.00,CLR,,0.00,WeatherDisplay:10.37,2009-06-29 08:20:00,
2009-06-29 01:33:00,71.2,44.3,28.32,WSW,248,0.0,0.0,38,0.00,CLR,,0.00,WeatherDisplay:10.37,2009-06-29 08:33:00,
2009-06-29 01:54:00,70.5,43.7,28.32,WSW,248,0.0,0.0,38,0.00,CLR,,0.00,WeatherDisplay:10.37,2009-06-29 08:54:00,
2009-06-29 02:00:00,70.9,44.0,28.32,WSW,248,0.0,0.0,38,0.00,CLR,,0.00,WeatherDisplay:10.37,2009-06-29 09:00:00,
2009-06-29 02:05:00,70.9,43.3,28.32,WSW,248,0.0,0.0,37,0.00,CLR,,0.00,WeatherDisplay:10.37,2009-06-29 09:05:00,
2009-06-29 02:10:00,71.1,42.7,28.32,WSW,248,0.0,0.0,36,0.00,CLR,,0.00,WeatherDisplay:10.37,2009-06-29 09:10:00,
2009-06-29 02:15:00,71.2,43.6,28.32,WSW,248,3.4,3.4,37,0.00,CLR,,0.00,WeatherDisplay:10.37,2009-06-29 09:15:00,
2009-06-29 02:20:00,71.2,43.6,28.32,WSW,248,0.0,0.0,37,0.00,CLR,,0.00,WeatherDisplay:10.37,2009-06-29 09:20:00,
2009-06-29 03:00:00,68.7,44.7,28.32,WSW,248,0.0,0.0,42,0.00,CLR,,0.00,WeatherDisplay:10.37,2009-06-29 10:00:00,
2009-06-29 03:05:00,68.5,44.5,28.32,WSW,248,2.3,0.0,42,0.00,CLR,,0.00,WeatherDisplay:10.37,2009-06-29 10:05:00,
2009-06-29 03:10:00,68.2,44.8,28.32,WSW,248,0.0,0.0,43,0.00,CLR,,0.00,WeatherDisplay:10.37,2009-06-29 10:10:00,
2009-06-29 03:15:00,68.4,45.0,28.32,WSW,248,2.3,0.0,43,0.00,CLR,,0.00,WeatherDisplay:10.37,2009-06-29 10:15:00,
2009-06-29 03:20:00,68.4,45.0,28.32,WSW,248,2.3,0.0,43,0.00,CLR,,0.00,WeatherDisplay:10.37,2009-06-29 10:20:00,
2009-06-29 04:00:00,67.3,46.4,28.29,WSW,248,2.3,0.0,47,0.00,CLR,,0.00,WeatherDisplay:10.37,2009-06-29 11:00:00,
2009-06-29 04:05:00,67.1,46.2,28.29,WSW,248,3.4,0.0,47,0.00,CLR,,0.00,WeatherDisplay:10.37,2009-06-29 11:05:00,
2009-06-29 04:10:00,67.1,46.2,28.29,WSW,248,2.3,0.0,47,0.00,CLR,,0.00,WeatherDisplay:10.37,2009-06-29 11:10:00,
2009-06-29 04:15:00,66.9,46.6,28.29,WSW,248,2.3,0.0,48,0.00,CLR,,0.00,WeatherDisplay:10.37,2009-06-29 11:15:00,
2009-06-29 04:20:00,66.7,46.4,28.29,WSW,248,0.0,0.0,48,0.00,CLR,,0.00,WeatherDisplay:10.37,2009-06-29 11:20:00,
2009-06-29 05:00:00,66.9,44.9,28.29,WSW,248,2.3,0.0,45,0.00,CLR,,0.00,WeatherDisplay:10.37,2009-06-29 12:00:00,
2009-06-29 05:05:00,67.1,45.0,28.29,WSW,248,2.3,0.0,45,0.00,CLR,,0.00,WeatherDisplay:10.37,2009-06-29 12:05:00,
2009-06-29 05:10:00,66.9,45.5,28.29,WSW,248,2.3,0.0,46,0.00,CLR,,0.00,WeatherDisplay:10.37,2009-06-29 12:10:00,
2009-06-29 05:15:00,66.6,45.1,28.29,WSW,248,0.0,0.0,46,0.00,CLR,,0.00,WeatherDisplay:10.37,2009-06-29 12:15:00,
2009-06-29 05:20:00,66.7,45.3,28.29,WSW,248,2.7,2.7,46,0.00,CLR,,0.00,WeatherDisplay:10.37,2009-06-29 12:20:00,
2009-06-29 05:43:00,66.9,44.3,28.29,WSW,248,0.0,0.0,44,0.00,CLR,,0.00,WeatherDisplay:10.37,2009-06-29 12:43:00,
2009-06-29 06:00:00,66.6,44.5,28.29,WSW,248,0.0,0.0,45,0.00,CLR,,0.00,WeatherDisplay:10.37,2009-06-29 13:00:00,
2009-06-29 06:05:00,66.6,44.5,28.29,WSW,248,0.0,0.0,45,0.00,CLR,,0.00,WeatherDisplay:10.37,2009-06-29 13:05:00,
2009-06-29 06:10:00,66.7,44.7,28.29,WSW,248,0.0,0.0,45,0.00,CLR,,0.00,WeatherDisplay:10.37,2009-06-29 13:10:00,
2009-06-29 06:15:00,66.7,44.7,28.29,WSW,248,0.0,0.0,45,0.00,CLR,,0.00,WeatherDisplay:10.37,2009-06-29 13:15:00,
2009-06-29 06:20:00,66.9,44.3,28.29,WSW,248,0.0,0.0,44,0.00,CLR,,0.00,WeatherDisplay:10.37,2009-06-29 13:20:00,
2009-06-29 06:34:00,66.9,44.3,28.29,WSW,248,0.0,0.0,44,0.00,CLR,,0.00,WeatherDisplay:10.37,2009-06-29 13:34:00,
2009-06-29 07:00:00,67.5,44.8,28.29,WSW,248,2.3,0.0,44,0.00,CLR,,0.00,WeatherDisplay:10.37,2009-06-29 14:00:00,
2009-06-29 07:05:00,67.5,44.8,28.29,WSW,248,2.3,0.0,44,0.00,CLR,,0.00,WeatherDisplay:10.37,2009-06-29 14:05:00,
2009-06-29 07:10:00,67.3,45.2,28.29,WSW,248,0.0,0.0,45,0.00,CLR,,0.00,WeatherDisplay:10.37,2009-06-29 14:10:00,
2009-06-29 07:15:00,67.5,45.4,28.29,WSW,248,2.3,0.0,45,0.00,CLR,,0.00,WeatherDisplay:10.37,2009-06-29 14:15:00,
2009-06-29 07:20:00,67.5,45.4,28.29,WSW,248,2.3,0.0,45,0.00,CLR,,0.00,WeatherDisplay:10.37,2009-06-29 14:20:00,
2009-06-29 07:56:00,67.6,47.2,28.29,WSW,248,0.0,0.0,48,0.00,CLR,,0.00,WeatherDisplay:10.37,2009-06-29 14:56:00,
2009-06-29 08:01:00,68.0,47.0,28.32,WSW,248,0.0,0.0,47,0.00,CLR,,0.00,WeatherDisplay:10.37,2009-06-29 15:01:00,
2009-06-29 08:06:00,67.8,46.8,28.32,WSW,248,0.0,0.0,47,0.00,CLR,,0.00,WeatherDisplay:10.37,2009-06-29 15:06:00,
2009-06-29 08:10:00,67.5,45.9,28.32,WSW,248,0.0,0.0,46,0.00,CLR,,0.00,WeatherDisplay:10.37,2009-06-29 15:10:00,
2009-06-29 08:11:00,67.8,46.8,28.32,WSW,248,0.0,0.0,47,0.00,CLR,,0.00,WeatherDisplay:10.37,2009-06-29 15:11:00,
2009-06-29 08:16:00,67.6,46.7,28.32,WSW,248,0.0,0.0,47,0.00,CLR,,0.00,WeatherDisplay:10.37,2009-06-29 15:16:00,
2009-06-29 09:00:00,68.5,53.6,28.32,WSW,248,0.0,0.0,59,0.00,CLR,,0.00,WeatherDisplay:10.37,2009-06-29 16:00:00,
2009-06-29 09:05:00,68.7,52.9,28.32,WSW,248,0.0,0.0,57,0.00,CLR,,0.00,WeatherDisplay:10.37,2009-06-29 16:05:00,
2009-06-29 09:10:00,68.9,50.0,28.32,WSW,248,0.0,0.0,51,0.00,CLR,,0.00,WeatherDisplay:10.37,2009-06-29 16:10:00,
2009-06-29 09:15:00,69.1,49.7,28.32,WSW,248,0.0,0.0,50,0.00,CLR,,0.00,WeatherDisplay:10.37,2009-06-29 16:15:00,
2009-06-29 09:20:00,69.1,49.7,28.32,WSW,248,0.0,0.0,50,0.00,CLR,,0.00,WeatherDisplay:10.37,2009-06-29 16:20:00,
2009-06-29 09:38:00,70.0,54.0,28.32,WSW,248,0.0,0.0,57,0.00,CLR,,0.00,WeatherDisplay:10.37,2009-06-29 16:38:00,
2009-06-29 10:00:00,71.2,59.7,28.35,NE,45,0.0,0.0,67,0.00,CLR,,0.00,WeatherDisplay:10.37,2009-06-29 17:00:00,
2009-06-29 10:05:00,71.6,59.6,28.35,NE,45,0.0,0.0,66,0.00,CLR,,0.00,WeatherDisplay:10.37,2009-06-29 17:05:00,
2009-06-29 10:10:00,72.0,59.6,28.35,NE,45,0.0,0.0,65,0.00,CLR,,0.00,WeatherDisplay:10.37,2009-06-29 17:10:00,
2009-06-29 10:15:00,72.1,59.3,28.35,NE,45,0.0,0.0,64,0.00,CLR,,0.00,WeatherDisplay:10.37,2009-06-29 17:15:00,
2009-06-29 10:20:00,72.3,59.5,28.35,NE,45,0.0,0.0,64,0.00,CLR,,0.00,WeatherDisplay:10.37,2009-06-29 17:20:00,
2009-06-29 10:25:00,72.7,59.4,28.35,NE,45,0.0,0.0,63,0.00,CLR,,0.00,WeatherDisplay:10.37,2009-06-29 17:25:00,
2009-06-29 11:00:00,74.7,53.7,28.38,ENE,68,3.4,3.4,48,0.00,CLR,,0.00,WeatherDisplay:10.37,2009-06-29 18:00:00,
2009-06-29 11:05:00,74.7,53.7,28.38,NE,45,2.3,0.0,48,0.00,CLR,,0.00,WeatherDisplay:10.37,2009-06-29 18:05:00,
2009-06-29 11:10:00,74.7,53.7,28.38,NE,45,2.3,0.0,48,0.00,CLR,,0.00,WeatherDisplay:10.37,2009-06-29 18:10:00,
2009-06-29 11:15:00,75.2,54.2,28.38,ENE,68,3.4,3.4,48,0.00,CLR,,0.00,WeatherDisplay:10.37,2009-06-29 18:15:00,
2009-06-29 11:20:00,75.7,54.7,28.38,ENE,68,3.4,0.0,48,0.00,CLR,,0.00,WeatherDisplay:10.37,2009-06-29 18:20:00,
2009-06-29 11:33:00,76.5,55.9,28.35,ENE,68,0.0,0.0,49,0.00,CLR,,0.00,WeatherDisplay:10.37,2009-06-29 18:33:00,
2009-06-29 11:45:00,76.6,56.0,28.35,East,90,3.4,3.6,49,0.00,CLR,,0.00,WeatherDisplay:10.37,2009-06-29 18:45:00,
2009-06-29 12:00:00,76.8,55.6,28.35,East,90,3.4,0.0,48,0.00,CLR,,0.00,WeatherDisplay:10.37,2009-06-29 19:00:00,
2009-06-29 12:05:00,77.0,55.8,28.35,East,90,3.4,3.4,48,0.00,CLR,,0.00,WeatherDisplay:10.37,2009-06-29 19:05:00,
2009-06-29 12:10:00,77.2,56.0,28.35,East,90,3.4,3.4,48,0.00,CLR,,0.00,WeatherDisplay:10.37,2009-06-29 19:10:00,
2009-06-29 12:15:00,77.4,56.1,28.35,ENE,68,3.4,0.0,48,0.00,CLR,,0.00,WeatherDisplay:10.37,2009-06-29 19:15:00,
2009-06-29 12:20:00,77.7,56.5,28.35,ENE,68,2.3,2.3,48,0.00,CLR,,0.00,WeatherDisplay:10.37,2009-06-29 19:20:00,
2009-06-29 13:00:00,81.0,55.7,28.35,ENE,68,3.4,3.4,42,0.00,CLR,,0.00,WeatherDisplay:10.37,2009-06-29 20:00:00,
2009-06-29 13:05:00,81.1,55.9,28.35,ENE,68,2.7,0.0,42,0.00,CLR,,0.00,WeatherDisplay:10.37,2009-06-29 20:05:00,
2009-06-29 13:10:00,81.3,55.4,28.35,ENE,68,2.3,0.0,41,0.00,CLR,,0.00,WeatherDisplay:10.37,2009-06-29 20:10:00,
2009-06-29 13:15:00,81.5,55.5,28.38,ENE,68,2.7,0.0,41,0.00,CLR,,0.00,WeatherDisplay:10.37,2009-06-29 20:15:00,
2009-06-29 13:20:00,81.7,57.0,28.38,ENE,68,0.0,0.0,43,0.00,CLR,,0.00,WeatherDisplay:10.37,2009-06-29 20:20:00,
2009-06-29 13:55:00,81.9,56.5,28.35,ENE,68,0.0,0.0,42,0.00,CLR,,0.00,WeatherDisplay:10.37,2009-06-29 20:55:00,
2009-06-29 14:00:00,82.0,56.0,28.35,ENE,68,2.3,0.0,41,0.00,CLR,,0.00,WeatherDisplay:10.37,2009-06-29 21:00:00,
2009-06-29 14:05:00,82.4,57.0,28.35,ENE,68,0.0,0.0,42,0.00,CLR,,0.00,WeatherDisplay:10.37,2009-06-29 21:05:00,
2009-06-29 14:10:00,82.6,57.2,28.35,ENE,68,0.0,0.0,42,0.00,CLR,,0.00,WeatherDisplay:10.37,2009-06-29 21:10:00,
2009-06-29 14:15:00,82.6,56.5,28.35,ENE,68,0.0,0.0,41,0.00,CLR,,0.00,WeatherDisplay:10.37,2009-06-29 21:15:00,
2009-06-29 14:20:00,82.4,56.3,28.35,ENE,68,2.3,0.0,41,0.00,CLR,,0.00,WeatherDisplay:10.37,2009-06-29 21:20:00,
2009-06-29 15:00:00,82.9,56.1,28.35,ENE,68,0.0,0.0,40,0.00,CLR,,0.00,WeatherDisplay:10.37,2009-06-29 22:00:00,
2009-06-29 15:05:00,83.1,56.3,28.35,ENE,68,2.3,0.0,40,0.00,CLR,,0.00,WeatherDisplay:10.37,2009-06-29 22:05:00,
2009-06-29 15:10:00,83.7,56.8,28.35,ESE,112,0.0,0.0,40,0.00,CLR,,0.00,WeatherDisplay:10.37,2009-06-29 22:10:00,
2009-06-29 15:15:00,84.2,56.6,28.35,East,90,0.0,0.0,39,0.00,CLR,,0.00,WeatherDisplay:10.37,2009-06-29 22:15:00,
2009-06-29 15:20:00,84.6,56.9,28.35,North,0,3.4,0.0,39,0.00,CLR,,0.00,WeatherDisplay:10.37,2009-06-29 22:20:00,
2009-06-29 15:55:00,80.6,54.7,28.35,NNW,338,0.0,0.0,41,0.00,CLR,,0.00,WeatherDisplay:10.37,2009-06-29 22:55:00,
2009-06-29 16:00:00,80.2,54.4,28.35,NNW,338,2.3,0.0,41,0.00,CLR,,0.00,WeatherDisplay:10.37,2009-06-29 23:00:00,
2009-06-29 16:05:00,79.9,54.7,28.35,NNW,338,2.3,0.0,42,0.00,CLR,,0.00,WeatherDisplay:10.37,2009-06-29 23:05:00,
2009-06-29 16:10:00,79.5,53.8,28.35,NNW,338,0.0,0.0,41,0.00,CLR,,0.00,WeatherDisplay:10.37,2009-06-29 23:10:00,
2009-06-29 16:15:00,79.0,54.6,28.35,NNW,338,0.0,0.0,43,0.00,CLR,,0.00,WeatherDisplay:10.37,2009-06-29 23:15:00,
2009-06-29 16:20:00,78.8,54.4,28.35,NNW,338,0.0,0.0,43,0.00,CLR,,0.00,WeatherDisplay:10.37,2009-06-29 23:20:00,
2009-06-29 16:44:00,77.2,53.6,28.35,NNW,338,0.0,0.0,44,0.00,CLR,,0.00,WeatherDisplay:10.37,2009-06-29 23:44:00,
2009-06-29 16:53:00,76.5,53.5,28.35,NNW,338,0.0,0.0,45,0.00,CLR,,0.00,WeatherDisplay:10.37,2009-06-29 23:53:00,
2009-06-29 17:00:00,76.1,53.8,28.35,NNW,338,2.3,0.0,46,0.00,CLR,,0.00,WeatherDisplay:10.37,2009-06-30 00:00:00,
2009-06-29 17:05:00,75.9,53.0,28.35,NNW,338,0.0,0.0,45,0.00,CLR,,0.00,WeatherDisplay:10.37,2009-06-30 00:05:00,
2009-06-29 17:10:00,75.6,52.7,28.35,NE,45,2.3,0.0,45,0.00,CLR,,0.00,WeatherDisplay:10.37,2009-06-30 00:10:00,
2009-06-29 17:15:00,75.2,52.4,28.35,NW,315,0.0,0.0,45,0.00,CLR,,0.00,WeatherDisplay:10.37,2009-06-30 00:15:00,
2009-06-29 17:20:00,75.0,52.8,28.35,NE,45,0.0,0.0,46,0.00,CLR,,0.00,WeatherDisplay:10.37,2009-06-30 00:20:00,
2009-06-29 17:25:00,74.7,52.5,28.35,NE,45,0.0,0.0,46,0.00,CLR,,0.00,WeatherDisplay:10.37,2009-06-30 00:25:00,
2009-06-29 18:00:00,73.0,52.2,28.32,NNE,22,0.0,0.0,48,0.00,CLR,,0.00,WeatherDisplay:10.37,2009-06-30 01:00:00,
2009-06-29 18:05:00,72.9,52.0,28.32,NNE,22,0.0,0.0,48,0.00,CLR,,0.00,WeatherDisplay:10.37,2009-06-30 01:05:00,
2009-06-29 18:10:00,72.5,51.7,28.32,NNE,22,2.3,0.0,48,0.00,CLR,,0.00,WeatherDisplay:10.37,2009-06-30 01:10:00,
2009-06-29 18:15:00,72.1,51.4,28.32,NNE,22,2.7,0.0,48,0.00,CLR,,0.00,WeatherDisplay:10.37,2009-06-30 01:15:00,
2009-06-29 18:20:00,72.1,51.4,28.32,NNE,22,2.3,0.0,48,0.00,CLR,,0.00,WeatherDisplay:10.37,2009-06-30 01:20:00,
2009-06-29 19:00:00,70.3,51.3,28.32,NW,315,0.0,0.0,51,0.00,CLR,,0.00,WeatherDisplay:10.37,2009-06-30 02:00:00,
2009-06-29 19:05:00,70.2,51.2,28.32,NW,315,0.0,0.0,51,0.00,CLR,,0.00,WeatherDisplay:10.37,2009-06-30 02:05:00,
2009-06-29 19:10:00,69.6,53.2,28.32,NW,315,0.0,0.0,56,0.00,CLR,,0.00,WeatherDisplay:10.37,2009-06-30 02:10:00,
2009-06-29 19:15:00,69.4,51.0,28.32,NW,315,0.0,0.0,52,0.00,CLR,,0.00,WeatherDisplay:10.37,2009-06-30 02:15:00,
2009-06-29 19:20:00,69.1,49.1,28.32,NW,315,0.0,0.0,49,0.00,CLR,,0.00,WeatherDisplay:10.37,2009-06-30 02:20:00,
2009-06-29 19:34:00,68.4,49.5,28.32,ESE,112,0.0,0.0,51,0.00,CLR,,0.00,WeatherDisplay:10.37,2009-06-30 02:34:00,
2009-06-29 19:55:00,66.2,51.9,28.32,South,180,0.0,0.0,60,0.00,CLR,,0.00,WeatherDisplay:10.37,2009-06-30 02:55:00,
2009-06-29 20:00:00,65.7,51.8,28.32,South,180,2.3,0.0,61,0.00,CLR,,0.00,WeatherDisplay:10.37,2009-06-30 03:00:00,
2009-06-29 20:05:00,64.8,51.9,28.32,SSW,202,2.3,0.0,63,0.00,CLR,,0.00,WeatherDisplay:10.37,2009-06-30 03:05:00,
2009-06-29 20:10:00,63.9,51.4,28.32,SSW,202,2.7,0.0,64,0.00,CLR,,0.00,WeatherDisplay:10.37,2009-06-30 03:10:00,
2009-06-29 20:15:00,62.8,51.2,28.32,SSW,202,2.3,0.0,66,0.00,CLR,,0.00,WeatherDisplay:10.37,2009-06-30 03:15:00,
2009-06-29 20:20:00,61.9,51.2,28.32,SSW,202,0.0,0.0,68,0.00,CLR,,0.00,WeatherDisplay:10.37,2009-06-30 03:20:00,
2009-06-29 20:26:00,60.8,51.0,28.32,SSW,202,2.3,0.0,70,0.00,CLR,,0.00,WeatherDisplay:10.37,2009-06-30 03:26:00,
2009-06-29 21:00:00,56.8,50.7,28.32,WSW,248,2.3,0.0,80,0.00,CLR,,0.00,WeatherDisplay:10.37,2009-06-30 04:00:00,
2009-06-29 21:05:00,56.7,50.9,28.32,WSW,248,2.3,0.0,81,0.00,CLR,,0.00,WeatherDisplay:10.37,2009-06-30 04:05:00,
2009-06-29 21:10:00,56.5,50.7,28.32,WSW,248,0.0,0.0,81,0.00,CLR,,0.00,WeatherDisplay:10.37,2009-06-30 04:10:00,
2009-06-29 21:15:00,56.3,50.9,28.29,WSW,248,2.3,0.0,82,0.00,CLR,,0.00,WeatherDisplay:10.37,2009-06-30 04:15:00,
2009-06-29 21:20:00,56.1,50.7,28.29,WSW,248,0.0,0.0,82,0.00,CLR,,0.00,WeatherDisplay:10.37,2009-06-30 04:20:00,
2009-06-29 22:00:00,55.8,51.0,28.32,WNW,292,0.0,0.0,84,0.00,CLR,,0.00,WeatherDisplay:10.37,2009-06-30 05:00:00,
2009-06-29 22:05:00,55.8,50.7,28.32,WNW,292,0.0,0.0,83,0.00,CLR,,0.00,WeatherDisplay:10.37,2009-06-30 05:05:00,
2009-06-29 22:10:00,55.6,50.5,28.32,WNW,292,0.0,0.0,83,0.00,CLR,,0.00,WeatherDisplay:10.37,2009-06-30 05:10:00,
2009-06-29 22:15:00,55.2,50.5,28.32,SW,225,0.0,0.0,84,0.00,CLR,,0.00,WeatherDisplay:10.37,2009-06-30 05:15:00,
2009-06-29 22:20:00,55.0,50.3,28.32,SSW,202,0.0,0.0,84,0.00,CLR,,0.00,WeatherDisplay:10.37,2009-06-30 05:20:00,
2009-06-29 22:38:00,54.9,50.4,28.32,WNW,292,0.0,0.0,85,0.00,CLR,,0.00,WeatherDisplay:10.37,2009-06-30 05:38:00,
2009-06-29 22:44:00,55.2,51.1,28.32,NNE,22,2.3,0.0,86,0.00,CLR,,0.00,WeatherDisplay:10.37,2009-06-30 05:44:00,
2009-06-29 23:00:00,55.8,51.0,28.32,ESE,112,0.0,0.0,84,0.00,CLR,,0.00,WeatherDisplay:10.37,2009-06-30 06:00:00,
2009-06-29 23:05:00,55.6,50.5,28.32,ESE,112,0.0,0.0,83,0.00,CLR,,0.00,WeatherDisplay:10.37,2009-06-30 06:05:00,
2009-06-29 23:10:00,55.8,50.7,28.32,ESE,112,0.0,0.0,83,0.00,CLR,,0.00,WeatherDisplay:10.37,2009-06-30 06:10:00,
2009-06-29 23:15:00,56.1,50.4,28.32,ESE,112,0.0,0.0,81,0.00,CLR,,0.00,WeatherDisplay:10.37,2009-06-30 06:15:00,
2009-06-29 23:20:00,56.5,50.0,28.32,SE,135,3.4,0.0,79,0.00,CLR,,0.00,WeatherDisplay:10.37,2009-06-30 06:20:00,
2009-06-29 23:54:00,57.0,49.2,28.32,SSE,158,3.4,3.4,75,0.00,CLR,,0.00,WeatherDisplay:10.37,2009-06-30 06:54:00,